GFSCGP_925_thetae_273.txt.gz
Theta_e
303 311 307 303 303 303 303 305 306 306 304 302 304 303 303 301 300 300 300 299 298 298 297 296 295 294 294 295 296 297 299 300 301 303 305 306 307 309 309 312 310 317 321 323
307 310 302 302 303 303 305 308 308 304 303 303 304 303 303 301 300 299 299 298 298 297 296 295 293 293 294 294 295 297 299 300 302 303 303 305 306 308 308 312 312 313 317 321
308 304 301 302 303 304 305 306 305 304 303 303 302 305 303 302 301 299 298 298 297 296 294 294 293 293 293 294 295 295 296 299 302 302 303 305 306 307 310 312 312 317 317 320
306 302 301 303 303 302 306 302 302 303 302 308 302 307 303 303 301 299 298 297 296 294 293 293 293 292 292 293 294 294 295 299 302 303 303 304 307 308 308 310 312 317 317 316
311 302 303 304 302 301 304 302 302 300 302 303 305 306 303 301 301 298 297 296 295 293 292 292 292 291 292 293 293 293 296 298 302 303 303 304 307 308 308 310 312 314 315 314
304 299 299 302 301 301 301 303 304 300 304 310 302 301 302 302 297 297 297 295 294 292 292 291 291 291 292 292 293 293 295 298 304 304 302 305 306 308 310 311 312 313 314 313
303 303 299 298 303 302 302 305 307 308 309 307 300 301 304 299 297 297 296 294 293 292 291 290 290 290 290 291 292 292 294 297 302 303 305 306 307 308 308 309 310 312 313 313
304 306 304 298 302 303 301 302 304 305 305 304 302 303 302 297 298 296 295 293 292 291 290 289 290 289 290 290 291 291 293 295 298 301 305 307 308 307 308 309 309 310 311 313
303 304 297 297 299 300 303 305 299 301 300 300 303 302 301 298 298 296 295 293 291 290 289 289 288 288 289 289 290 290 292 293 295 297 300 302 303 305 307 309 310 310 310 309
299 302 300 299 299 299 303 298 303 302 304 303 303 304 303 299 297 296 295 293 291 289 288 288 288 287 288 288 288 289 290 291 293 295 296 298 299 300 302 305 307 309 310 308
298 298 303 296 301 304 302 303 301 300 301 303 302 301 299 297 296 295 294 292 290 289 288 287 287 287 287 287 287 287 288 289 291 292 293 295 296 298 298 301 304 307 309 308
298 300 301 304 299 298 301 303 300 300 303 301 301 301 299 297 296 295 294 292 290 289 288 287 286 286 286 286 287 286 287 288 289 290 291 292 293 294 297 299 302 303 306 307
298 300 302 303 299 297 299 301 300 299 298 300 301 301 301 298 297 295 294 291 290 289 288 287 286 285 285 285 286 286 287 287 288 288 289 290 290 292 294 296 299 299 302 303
296 298 299 301 302 297 297 298 299 299 301 302 302 302 300 298 297 294 294 292 290 289 288 287 286 285 284 284 285 285 286 286 286 287 288 288 288 290 291 293 295 296 300 296
297 298 296 297 298 297 298 296 295 297 298 299 302 297 298 297 296 294 294 292 290 290 288 286 285 284 283 283 283 284 284 285 285 286 286 287 288 288 290 291 292 292 293 294
294 297 290 293 293 293 295 295 297 295 296 297 296 295 296 297 296 295 294 291 289 288 287 285 284 283 282 282 282 283 284 284 284 285 285 286 286 287 288 288 290 290 289 289
294 296 294 298 291 292 299 297 297 298 297 297 298 302 296 294 295 294 293 290 288 287 285 284 283 282 281 280 281 282 283 283 284 284 284 285 285 286 286 287 287 287 287 288
291 292 293 297 294 301 305 296 298 300 300 298 298 294 294 293 293 292 291 288 288 286 284 282 281 279 279 279 281 281 281 282 283 284 284 284 285 285 285 285 285 286 286 286
292 294 296 295 298 300 297 294 295 296 300 300 299 297 293 292 291 293 290 287 286 284 282 281 279 278 278 278 280 281 280 281 282 282 283 284 284 284 284 284 284 285 285 285
290 291 294 290 295 299 297 295 294 294 299 297 297 296 292 292 292 292 289 286 284 282 281 280 279 278 277 277 279 280 279 279 279 281 282 284 284 284 284 284 284 285 285 285
291 291 293 295 295 297 296 294 292 299 298 294 295 292 291 291 292 289 287 284 282 281 280 279 279 277 275 275 277 279 278 276 278 281 282 282 282 283 284 284 285 285 285 285
292 293 290 294 295 296 292 291 296 298 291 293 293 291 291 290 289 288 286 284 283 282 280 278 278 276 274 274 275 276 276 277 280 282 282 281 283 284 284 285 285 285 285 284
292 295 296 293 295 293 292 296 295 292 293 291 292 291 290 289 288 287 286 285 283 281 280 277 277 277 275 274 274 275 275 276 279 281 281 282 283 284 284 284 285 285 285 285
287 287 290 290 295 290 290 292 292 292 291 291 291 290 290 289 288 287 286 285 283 280 279 277 276 276 275 274 274 274 275 277 278 279 279 281 282 283 283 282 283 283 284 283
290 286 290 290 291 292 291 290 291 292 290 288 289 289 289 289 288 287 286 285 283 280 278 277 276 276 275 275 275 275 276 276 277 278 278 280 282 282 282 282 281 281 281 281
286 291 290 294 295 295 295 294 291 290 290 289 288 286 287 288 287 287 286 285 283 281 279 277 276 276 275 275 275 275 276 276 276 277 277 278 281 282 282 281 280 279 279 279

GFSCGP_925_thetae_276.txt.gz
Theta_e
303 312 307 303 303 303 303 304 305 306 304 303 303 302 302 302 300 300 299 298 297 296 297 296 294 294 294 294 294 294 295 297 298 300 301 303 304 305 307 308 310 310 308 316
309 312 303 302 303 303 304 305 305 304 303 302 302 302 302 302 300 300 299 296 296 296 295 294 293 293 293 293 293 293 293 295 295 296 298 303 303 304 306 308 309 311 310 313
306 305 302 302 303 303 304 304 301 302 302 302 302 302 303 302 301 299 298 296 296 295 294 293 292 292 292 292 292 292 294 294 295 297 299 301 303 304 305 309 312 312 312 311
306 302 302 303 303 302 301 303 302 302 297 299 302 300 302 302 302 300 297 295 295 293 292 292 291 291 291 291 292 292 293 293 295 297 299 302 303 304 306 307 310 311 311 317
306 302 303 303 303 301 302 301 301 302 297 298 302 298 302 300 301 297 296 296 294 292 291 291 290 290 290 290 291 291 292 293 295 297 300 302 303 303 306 308 309 311 313 316
303 300 299 302 300 301 302 301 302 301 298 302 297 296 299 301 299 296 296 295 294 292 290 289 289 289 289 289 290 291 291 292 294 297 302 304 303 304 307 307 309 312 312 314
304 303 299 298 302 302 300 298 299 298 301 300 293 298 299 299 297 296 295 294 292 291 289 288 288 288 288 289 289 290 290 291 293 296 299 304 303 304 306 309 310 310 311 312
300 300 300 299 301 301 301 298 296 296 299 300 294 296 300 297 297 295 294 293 292 290 289 288 287 287 287 288 288 288 289 290 292 294 297 300 303 306 307 308 309 309 310 310
300 302 297 298 299 299 301 300 298 294 293 298 296 299 299 297 292 294 294 293 291 289 288 288 287 287 286 287 288 287 288 289 291 293 294 297 300 301 303 305 306 309 310 310
298 297 299 298 299 298 298 298 295 294 297 296 296 295 299 290 289 291 292 290 289 289 288 287 287 286 286 286 287 287 287 288 290 291 292 294 296 298 299 300 301 304 306 309
297 294 298 296 294 298 297 296 295 294 297 300 298 297 292 289 287 289 289 291 288 288 287 287 286 286 285 285 286 287 287 288 289 290 291 292 294 296 297 298 299 301 303 305
298 299 295 297 301 298 300 298 299 293 293 299 300 299 293 289 287 285 287 290 289 288 288 287 285 285 285 284 284 285 285 287 287 288 290 291 292 294 295 296 298 299 301 302
297 295 293 299 297 296 295 299 299 296 297 294 297 297 290 289 287 285 288 286 288 289 288 287 285 284 283 283 283 284 285 286 286 287 288 289 290 292 293 294 297 298 298 298
296 298 293 295 293 291 294 297 298 297 291 295 297 298 298 292 288 284 285 284 286 289 288 286 284 284 283 282 282 282 284 285 285 286 287 287 288 289 291 292 294 295 295 296
296 292 296 296 295 295 295 295 294 294 296 292 295 291 296 295 294 284 285 283 286 285 285 285 284 283 282 281 281 282 282 284 284 285 286 286 288 289 290 291 292 293 294 293
295 290 289 288 293 293 292 293 293 293 292 291 294 294 294 292 284 284 283 283 283 285 283 283 282 281 280 280 280 281 281 283 284 284 285 286 286 287 288 288 289 291 290 290
292 291 287 290 292 289 289 289 290 291 289 289 290 291 285 286 283 282 282 282 282 282 281 281 280 280 279 279 280 281 281 282 283 284 285 285 285 285 286 287 287 287 287 288
288 289 288 287 287 292 292 296 292 291 293 292 291 290 285 283 281 283 280 282 280 280 277 280 280 279 278 278 280 281 280 281 281 282 283 284 285 285 285 285 286 286 285 286
291 290 288 286 286 293 295 293 293 293 293 295 295 293 288 287 290 288 285 283 281 280 280 281 280 278 277 277 279 281 280 280 281 282 282 283 284 285 285 285 285 285 285 285
292 291 289 284 285 288 296 294 294 294 293 296 296 296 292 290 289 288 289 286 283 282 281 280 279 278 276 276 278 280 279 279 279 281 282 284 284 285 285 285 285 285 286 285
290 291 291 292 285 291 294 292 292 290 293 294 294 292 290 289 288 286 284 283 282 281 280 280 279 277 275 275 277 278 278 277 279 281 283 284 284 285 285 285 285 285 284 284
291 291 290 291 288 293 291 290 294 294 291 293 292 289 289 288 286 285 284 283 282 282 280 279 278 277 276 275 276 276 276 278 280 282 283 284 285 285 285 285 285 285 284 284
289 293 291 293 293 293 290 291 291 291 291 290 290 288 287 287 285 284 283 282 280 281 280 279 277 277 275 275 274 275 275 277 280 282 282 283 283 284 284 284 284 284 284 283
286 288 289 287 291 291 290 289 289 290 289 290 289 287 286 286 284 283 280 280 278 281 279 279 277 276 275 274 275 275 275 277 278 280 281 282 282 282 282 282 282 282 282 282
289 286 288 290 290 290 290 289 288 288 288 286 284 285 285 285 285 284 282 280 281 282 280 278 277 276 275 275 275 275 276 277 278 279 280 281 281 281 281 280 280 279 280 280
285 291 290 295 296 293 294 287 285 285 286 286 284 282 280 284 284 283 281 283 283 282 280 278 277 277 276 276 276 276 277 277 278 277 279 280 281 281 280 279 278 279 279 279

GFSCGP_925_thetae_279.txt.gz
Theta_e
302 301 296 300 301 302 302 302 301 302 303 301 301 300 300 300 298 297 297 296 296 295 295 294 293 293 292 292 292 291 291 292 293 294 294 295 297 299 302 303 304 304 307 307
301 301 301 301 302 302 301 296 297 300 301 300 300 300 300 300 297 297 297 297 294 294 293 293 292 292 291 291 291 291 291 292 294 293 294 296 296 298 300 303 303 306 307 308
298 303 301 302 302 300 300 297 297 299 299 298 299 297 301 300 298 298 298 295 293 293 292 291 291 290 290 289 290 290 291 291 292 293 294 296 298 299 301 302 303 305 308 308
300 301 301 302 301 298 296 301 300 300 293 294 298 295 299 300 300 299 295 293 292 290 291 290 290 289 289 289 289 289 290 291 292 292 294 296 298 300 301 302 304 305 311 311
297 301 302 300 302 299 298 300 300 300 289 295 294 293 298 300 300 296 294 294 292 290 289 289 289 288 288 288 288 289 290 290 291 291 293 296 298 300 301 303 303 306 308 309
296 299 298 299 299 299 300 297 296 295 289 291 291 292 297 297 299 296 294 293 292 290 290 289 288 287 287 287 287 288 288 289 289 290 292 295 298 303 302 303 304 308 310 310
297 299 298 297 300 300 295 289 287 290 291 296 286 295 297 297 295 295 293 292 291 290 289 288 287 287 286 286 286 287 288 288 289 290 292 293 298 303 302 302 304 307 309 311
290 291 293 299 299 295 297 291 289 288 293 293 286 294 296 296 294 294 292 291 291 289 288 288 287 286 286 285 286 286 287 287 288 290 291 292 297 300 302 304 306 308 309 309
291 295 296 298 299 295 295 293 295 287 283 292 290 292 296 295 288 291 291 291 290 289 288 287 287 286 285 285 285 286 286 287 288 288 290 291 294 296 298 300 302 303 306 309
295 289 291 295 298 295 293 295 290 286 290 290 290 287 296 290 287 287 290 288 287 286 286 287 286 285 285 285 284 284 286 286 287 288 289 291 292 295 297 298 299 300 303 304
291 286 290 295 289 291 290 290 289 288 293 290 290 293 288 288 285 285 287 287 285 284 285 286 286 285 284 283 283 283 284 285 286 287 288 290 291 294 295 297 297 298 299 301
296 294 292 292 297 297 293 291 294 290 286 292 295 297 284 284 284 283 286 285 285 280 284 286 286 285 284 283 282 282 283 284 285 285 287 289 290 292 294 295 296 297 298 300
296 288 286 291 293 293 292 295 295 289 295 295 290 292 284 279 281 283 284 285 281 282 282 285 285 284 283 282 281 281 282 283 284 285 287 287 288 290 291 293 295 297 298 299
296 297 290 292 288 285 291 295 297 293 285 289 292 293 295 293 285 283 282 281 277 277 281 283 283 283 282 281 281 281 281 282 283 285 286 286 287 288 290 291 293 295 297 296
293 292 294 294 292 289 294 293 291 293 294 291 294 287 292 293 289 290 282 274 281 278 279 280 280 281 280 280 280 280 281 281 283 284 285 286 287 288 289 290 290 292 293 294
295 288 286 286 292 293 292 292 291 291 292 291 294 294 294 292 277 280 281 274 280 274 275 277 276 279 279 279 279 280 281 281 282 283 284 285 286 287 287 288 288 289 289 289
292 287 284 286 290 287 290 287 287 286 283 285 286 289 278 282 280 278 279 276 278 274 273 276 274 277 278 278 279 280 280 281 282 282 284 285 285 286 286 286 287 287 287 287
286 287 281 284 282 287 295 292 288 289 289 286 285 286 284 283 278 278 273 279 279 272 273 274 277 278 277 277 280 281 281 281 281 282 283 284 285 285 285 285 285 285 285 286
290 287 285 285 276 287 293 293 294 294 292 291 291 291 285 283 288 285 281 280 276 275 277 280 279 277 277 277 279 280 281 281 281 282 283 284 285 285 285 285 285 285 285 285
292 291 288 278 283 285 292 293 293 292 290 291 292 293 293 289 286 284 288 285 283 282 281 280 279 277 276 277 279 280 280 280 280 281 283 285 285 285 285 285 285 285 285 285
287 288 292 292 285 285 289 291 292 287 291 293 292 292 290 288 286 286 285 283 282 281 280 279 279 277 276 276 278 278 279 279 281 283 284 285 285 285 285 284 284 284 284 284
287 287 285 285 285 289 290 290 292 292 291 292 291 289 289 287 285 284 283 282 281 280 280 279 278 277 275 276 277 276 277 279 282 283 284 284 285 284 284 284 284 283 283 283
288 289 288 290 290 291 290 291 291 289 290 290 290 288 286 286 284 283 282 281 280 281 280 279 278 277 275 275 275 276 277 279 281 282 283 282 283 283 283 283 283 282 282 282
286 286 289 288 292 291 291 291 289 289 290 289 288 288 285 285 282 282 279 279 278 280 280 279 278 277 275 275 275 275 276 278 280 281 282 281 281 281 281 280 280 280 280 279
288 287 288 287 290 290 290 289 289 289 288 285 283 285 285 284 283 283 281 279 279 280 280 279 278 277 276 275 275 275 276 278 279 280 281 281 280 280 279 279 279 279 279 278
285 291 291 296 297 295 296 294 285 287 284 285 284 281 278 283 284 282 281 282 281 280 280 279 278 277 276 275 275 275 276 277 278 280 281 280 280 279 278 278 278 279 279 279

GFSCGP_925_thetae_285.txt.gz
Theta_e
300 298 296 299 298 298 299 300 300 298 298 298 298 297 297 297 296 295 293 293 293 293 293 293 292 292 291 290 289 288 288 288 288 288 289 289 290 292 292 293 294 295 295 296
296 297 299 299 300 301 299 294 294 297 298 298 297 297 297 297 296 296 293 292 294 292 291 292 291 291 290 289 288 287 287 287 287 287 288 290 291 291 292 293 295 296 296 297
295 301 300 300 300 299 299 295 294 299 298 296 295 296 295 297 297 295 294 293 292 291 291 290 291 291 289 288 288 287 286 286 286 287 288 289 290 291 292 293 295 296 297 298
296 301 300 301 300 298 295 298 299 299 293 292 295 295 296 297 297 296 294 292 291 290 290 290 290 289 289 288 287 286 286 285 285 286 287 289 289 290 291 292 294 296 297 298
296 301 300 299 301 297 298 298 299 295 286 293 290 291 296 296 298 297 295 292 290 289 289 289 289 289 288 288 287 286 285 285 285 286 288 287 288 289 291 292 293 294 297 298
294 297 298 298 298 298 296 293 290 290 284 289 287 290 296 295 295 296 295 292 290 289 289 288 288 288 288 287 286 285 284 285 284 285 286 287 288 289 291 292 292 294 296 299
294 297 297 296 298 296 292 284 286 288 286 291 279 291 295 293 294 294 294 292 289 289 288 287 286 287 287 286 286 284 284 283 283 284 286 286 287 289 290 291 291 294 299 301
289 293 291 297 297 291 295 287 288 284 287 288 282 292 293 293 293 292 291 290 289 289 287 286 286 286 286 286 285 284 283 282 282 283 284 285 287 288 289 290 290 293 300 302
290 292 295 296 298 294 290 291 289 283 278 285 286 288 291 292 288 291 290 288 288 288 287 285 285 285 285 285 285 284 283 282 282 282 283 285 286 287 288 289 290 293 300 303
292 291 290 294 296 293 289 291 290 285 287 284 284 279 290 287 288 288 290 289 287 286 285 284 284 284 284 284 284 283 282 282 281 282 282 284 285 286 288 289 291 293 297 299
287 286 289 294 290 290 294 288 288 285 289 287 286 289 284 286 284 284 285 286 285 284 282 281 281 283 283 283 283 282 282 281 281 281 282 283 285 287 288 289 291 292 294 297
294 291 288 291 293 292 290 288 292 290 285 286 290 293 285 283 278 274 283 284 284 281 280 278 279 281 281 281 281 281 281 281 281 281 282 283 285 287 288 289 291 292 293 296
296 287 286 294 292 293 292 293 293 289 291 289 290 293 280 274 280 279 279 284 283 281 279 275 276 277 278 279 280 281 281 281 281 281 281 283 285 287 288 289 291 292 294 296
296 293 290 296 293 285 292 295 296 296 289 294 294 295 295 295 293 288 279 280 280 277 276 271 272 274 276 277 279 280 280 281 281 282 283 283 285 287 288 289 291 292 293 293
293 288 292 291 290 286 293 293 294 295 297 293 297 288 293 294 292 291 278 277 276 278 277 270 269 271 275 277 279 280 280 281 282 282 283 284 285 287 288 288 289 290 291 291
293 288 285 283 292 292 291 292 294 293 294 294 294 294 294 294 290 281 282 275 278 275 276 270 269 271 274 276 278 280 280 281 282 283 284 285 285 286 286 287 287 288 288 288
294 290 287 289 285 284 291 292 292 288 283 291 292 293 290 289 282 277 281 275 279 277 275 270 271 271 275 276 278 280 281 282 282 283 284 285 285 285 285 286 286 286 286 286
291 291 291 287 281 288 295 290 288 288 290 285 285 287 281 284 279 279 278 277 279 275 274 269 272 276 277 277 281 281 283 283 282 283 284 284 284 285 285 285 286 286 286 286
293 294 291 287 275 288 294 292 290 290 292 289 289 290 289 281 285 285 279 276 278 274 273 277 279 278 277 277 280 281 282 283 283 282 283 284 284 284 284 284 285 285 286 286
292 294 294 279 288 288 294 292 291 291 290 291 288 289 289 289 288 286 287 283 282 281 281 280 279 278 277 278 280 281 281 282 282 283 283 284 284 283 283 283 283 284 284 284
288 288 294 288 290 286 289 290 291 289 296 292 289 289 289 290 288 285 286 285 284 282 281 280 279 278 277 277 279 280 281 280 281 283 284 284 284 284 283 283 283 283 283 283
288 287 288 289 287 290 288 287 292 294 292 291 291 291 290 289 288 285 286 284 281 280 280 281 279 278 278 277 278 279 280 281 282 283 283 283 284 284 284 284 283 283 283 282
290 289 288 289 290 291 287 291 291 290 291 291 290 289 288 288 288 285 283 282 279 280 280 280 279 278 278 277 277 278 279 281 282 282 282 282 282 283 283 283 282 282 282 281
284 285 288 288 292 290 290 289 289 289 289 290 289 289 287 287 285 284 281 279 278 279 279 280 279 277 277 278 277 278 279 281 281 281 281 281 281 280 280 280 280 280 279 279
288 286 286 286 291 288 291 290 291 291 289 288 287 287 287 286 285 284 282 279 278 278 279 280 279 279 278 277 278 277 279 280 280 280 280 279 279 279 279 279 279 278 278 278
285 291 292 297 297 295 296 296 287 289 290 290 288 287 284 285 286 283 283 280 280 278 279 279 279 279 279 277 278 278 279 280 279 279 279 279 279 279 279 279 279 280 280 280

GFSCGP_925_thetae_288.txt.gz
Theta_e
299 297 296 298 298 296 297 299 299 297 298 298 298 297 297 297 293 293 292 292 293 293 293 293 293 292 292 291 291 290 288 288 287 286 286 287 288 289 290 291 291 292 293 294
295 296 298 298 299 300 299 294 294 296 297 298 296 297 296 295 294 295 295 293 292 293 291 291 292 292 291 291 290 289 288 287 286 286 286 286 287 288 289 290 291 292 293 295
296 301 299 299 300 299 299 295 293 298 298 295 294 294 294 295 296 296 294 293 292 292 291 290 291 291 290 290 289 289 288 286 285 285 285 286 287 288 290 290 291 291 293 294
296 300 300 300 300 298 295 297 299 298 291 291 294 293 295 296 295 296 295 291 291 289 289 289 290 290 290 289 288 288 287 286 285 285 285 286 288 288 288 289 290 291 292 293
297 301 300 299 300 297 297 297 298 294 285 291 289 290 294 295 297 295 295 292 290 289 288 289 289 290 289 288 287 287 286 285 284 284 284 285 285 287 288 288 289 291 292 293
294 297 298 298 297 297 294 291 289 287 282 287 285 288 294 294 294 296 295 293 291 289 288 288 289 289 288 287 286 286 286 285 284 283 283 284 285 287 287 288 289 290 291 292
293 297 296 296 298 295 292 285 287 289 286 291 278 290 295 293 292 293 293 291 291 288 287 287 287 287 287 286 285 285 285 284 283 282 282 283 284 285 286 287 289 290 291 292
289 294 292 296 296 291 294 287 288 286 288 287 280 290 294 291 291 291 290 289 289 288 287 287 286 286 286 285 284 284 284 283 283 282 282 282 282 285 286 286 288 289 290 291
290 291 294 296 297 293 290 291 287 282 276 283 285 287 290 291 286 290 290 290 289 288 287 286 285 286 285 283 283 283 283 283 282 282 281 281 282 284 285 286 287 289 290 292
291 291 288 293 295 292 289 290 290 284 286 285 285 279 293 288 284 286 287 285 286 287 286 285 283 284 283 282 281 283 283 282 282 281 281 282 282 283 285 286 287 289 290 293
286 286 289 294 292 292 294 288 286 285 288 287 285 291 286 286 283 283 284 284 283 283 283 282 281 282 281 281 280 282 282 282 281 281 281 281 282 284 285 286 288 289 291 292
293 290 288 291 292 292 290 287 291 290 286 284 288 294 290 283 276 272 282 284 283 281 282 279 278 280 279 279 279 281 281 281 281 281 281 281 282 284 285 287 289 290 291 292
295 288 288 296 293 291 292 292 291 288 291 288 290 296 284 274 277 280 280 283 283 280 280 274 277 276 277 278 278 280 281 281 281 281 281 282 283 285 286 287 289 290 292 291
296 294 292 299 295 286 292 293 294 293 290 295 295 297 298 298 296 292 286 280 279 279 276 271 274 272 276 276 278 280 281 281 281 282 282 283 284 285 286 287 289 290 291 291
296 292 292 292 290 286 291 290 293 294 293 294 298 294 297 296 296 294 282 281 282 279 277 272 270 269 275 276 278 281 282 282 282 282 283 284 285 286 286 287 288 288 288 289
293 287 285 284 292 291 290 292 293 293 293 294 294 294 295 294 292 286 284 279 280 279 277 272 270 269 274 275 277 280 281 282 282 283 283 284 285 285 286 286 287 287 287 287
293 288 286 289 285 284 291 291 293 287 286 289 289 293 293 291 286 281 282 276 280 280 276 273 272 271 276 276 278 281 281 282 283 283 283 284 284 285 285 286 286 286 286 286
292 290 291 287 280 291 294 290 289 289 289 286 287 289 288 282 279 281 284 281 281 276 273 273 270 276 278 277 280 282 282 283 283 283 283 283 284 284 284 285 285 285 285 285
293 295 293 290 278 289 294 290 289 290 292 290 289 289 287 282 285 288 281 277 277 274 274 277 279 279 278 278 280 282 282 283 283 283 283 283 283 283 283 283 283 284 284 284
294 296 297 279 285 290 294 292 290 290 292 291 288 289 289 288 288 287 286 285 283 281 281 280 280 279 278 278 280 281 281 282 282 282 283 284 283 283 283 283 283 283 283 283
287 289 295 281 287 287 289 290 289 291 297 290 288 289 288 289 289 286 287 286 284 284 282 281 280 279 279 278 279 280 280 281 281 282 283 284 284 283 283 284 284 284 283 283
288 288 289 288 286 291 287 288 292 294 292 291 289 290 289 288 288 287 285 285 283 281 281 281 280 279 279 278 278 279 280 281 281 282 283 283 283 283 283 284 283 284 283 282
291 290 288 290 291 290 287 291 290 289 290 290 290 289 288 288 287 287 286 284 283 281 281 281 281 280 279 278 278 278 280 281 281 282 282 281 282 282 282 282 282 282 282 281
283 284 287 289 294 288 288 288 288 288 288 290 288 288 287 287 286 285 285 282 280 280 279 280 280 279 279 279 278 278 279 281 280 281 281 281 281 280 280 280 280 279 279 279
288 287 286 288 292 287 291 288 290 291 288 287 287 286 288 286 287 285 286 283 280 280 279 280 279 279 280 279 279 278 279 280 279 280 280 279 279 279 279 279 279 279 279 279
285 288 292 297 297 294 296 291 287 288 289 288 287 288 285 286 287 285 284 284 281 279 280 277 279 279 281 279 279 278 278 280 279 280 279 279 279 280 279 280 280 280 280 280

GFSCGP_925_thetae_291.txt.gz
Theta_e
298 299 297 298 297 295 296 299 299 297 297 298 297 296 297 296 294 293 292 292 293 293 294 293 293 292 292 291 290 289 289 290 289 288 286 287 287 287 287 288 289 290 291 291
296 297 298 298 299 299 298 294 294 296 297 298 296 296 296 294 294 294 295 294 293 292 291 292 292 292 292 291 289 288 288 289 289 287 286 286 286 286 287 287 289 290 290 292
296 300 298 299 299 299 298 295 294 298 297 294 294 295 293 294 295 296 294 293 292 292 292 291 291 291 292 291 289 288 287 288 288 288 286 285 285 286 287 289 288 289 290 291
296 299 300 300 300 297 296 297 298 298 293 292 293 295 295 294 294 296 295 293 292 291 290 290 290 291 291 291 289 288 286 287 288 287 285 285 285 285 286 286 287 288 289 290
297 300 300 298 299 296 297 296 297 293 291 290 290 291 295 294 295 294 294 293 292 290 289 289 290 290 291 290 289 287 285 285 287 286 284 284 284 284 284 286 287 288 289 290
293 296 297 298 296 296 293 291 289 286 283 289 285 290 295 294 294 295 295 293 292 291 289 288 289 290 290 289 289 286 284 285 286 285 284 283 283 283 284 286 286 287 288 289
292 296 295 296 297 295 292 286 290 292 290 295 277 290 296 293 292 292 293 291 290 289 288 288 288 288 288 288 288 284 283 284 285 284 283 283 282 283 283 284 285 287 288 289
290 296 291 295 295 291 293 287 290 288 291 290 280 290 295 291 291 290 289 289 289 289 289 288 288 287 287 287 285 283 282 283 284 283 282 282 282 282 282 284 285 286 287 288
290 292 293 296 295 292 290 290 287 282 275 284 286 287 290 291 286 290 290 290 290 289 288 287 286 286 286 285 283 281 282 283 283 282 282 282 282 282 283 283 284 286 287 288
291 292 288 293 294 291 289 289 290 285 288 288 288 281 293 289 286 283 287 285 285 286 286 285 284 285 284 283 281 280 283 282 282 282 282 282 282 282 282 283 285 286 287 288
286 287 289 294 291 292 292 290 286 286 289 290 287 294 285 286 285 285 285 285 284 284 284 283 282 282 282 281 280 280 283 282 282 282 282 281 281 282 283 284 285 287 287 289
292 290 288 290 292 292 291 290 292 293 289 285 289 293 285 284 277 275 283 286 285 281 282 280 280 280 280 279 279 281 283 280 282 282 281 282 282 283 283 284 286 287 289 290
294 287 288 296 292 291 292 292 292 289 291 288 291 297 284 276 279 283 281 286 287 281 281 277 277 278 277 278 278 281 282 280 282 282 281 282 283 283 285 286 287 288 289 290
296 293 292 298 294 286 292 294 293 293 289 294 294 297 297 297 296 293 288 285 283 280 278 275 275 273 276 277 278 281 282 282 282 282 282 282 283 284 285 286 287 288 288 289
296 291 292 290 289 285 289 289 293 292 292 294 299 293 296 297 296 294 285 287 285 283 278 277 271 272 275 277 278 281 281 283 282 282 283 283 284 285 286 286 287 287 287 288
293 293 284 285 292 292 291 292 292 293 293 291 294 294 294 294 292 288 285 283 283 282 279 277 269 271 273 277 278 281 281 283 282 282 283 283 284 284 285 286 286 286 286 286
294 288 286 291 285 284 291 290 293 287 284 290 289 292 279 288 284 283 285 280 282 282 279 276 273 273 277 278 278 282 281 283 283 283 283 283 283 284 284 285 285 285 285 285
294 290 292 290 281 296 296 290 288 288 288 286 286 286 289 287 285 281 280 281 283 280 276 275 272 277 278 278 279 282 282 284 283 283 283 283 283 283 284 284 284 284 284 284
293 295 293 294 282 290 296 289 289 290 292 289 290 290 288 283 284 288 282 280 281 277 275 277 280 280 279 279 279 282 282 284 283 282 283 283 283 283 283 283 283 283 283 284
292 296 298 283 288 290 294 291 288 289 293 290 289 290 288 287 292 290 288 284 284 283 281 282 280 280 279 279 279 281 282 283 283 282 283 283 284 283 283 283 283 283 283 283
290 292 296 284 290 287 289 290 288 293 297 289 288 289 287 290 291 290 285 286 286 285 283 283 281 280 280 279 279 281 281 282 282 283 282 283 284 284 284 284 284 283 283 282
289 290 290 284 289 291 287 288 292 294 292 289 288 288 288 288 287 287 286 285 284 284 283 283 280 280 280 279 278 279 280 282 282 282 282 283 283 283 283 284 283 283 283 282
291 293 289 291 291 290 288 291 290 289 290 290 290 288 288 287 286 286 286 286 285 284 284 283 281 281 280 279 279 278 280 282 282 281 282 282 282 282 282 282 282 282 282 281
283 284 288 290 292 289 288 289 288 287 288 289 288 287 287 288 286 285 284 284 283 282 282 283 280 279 279 280 278 279 279 281 281 281 280 280 280 280 280 280 280 280 280 279
290 287 287 290 288 288 291 289 291 290 288 287 287 286 288 286 287 286 287 284 285 284 283 282 279 279 281 281 279 279 279 281 280 280 280 279 279 279 279 279 280 279 279 279
285 287 292 295 292 294 296 292 291 290 289 288 288 289 284 285 287 286 285 286 285 283 283 279 279 280 281 281 280 279 279 280 280 279 279 279 280 280 280 280 280 281 280 280